JA3VQW-13 Weather Reports


Display with metric or nautical units.
time (UTC)temp
F
wind
direction
speed
MPH
gust
MPH
rain 1hr
in
rain 24hr
in
rain mn
in
humidity
%
barometer
mb
20181121003849 55 292 0.0 0.0 0.00 0.00 0.00 49 1015.0
20181121003311 54 292 0.0 0.0 0.00 0.00 0.00 49 1015.0
20181121002348 54 292 0.0 0.0 0.00 0.00 0.00 50 1015.0
20181121000848 53 292 0.0 0.0 0.00 0.00 0.00 52 1015.0
20181121000310 53 292 0.0 0.0 0.00 0.00 0.00 54 1015.0
20181120235348 51 292 0.0 0.0 0.00 0.00 0.00 61 1014.0
20181120233849 48 270 0.0 0.0 0.00 0.00 0.00 67 1014.0
20181120233310 48 270 0.0 0.0 0.00 0.00 0.00 68 1014.0
20181120232349 47 270 0.0 0.0 0.00 0.00 0.00 70 1014.0
20181120230849 47 270 0.0 0.0 0.00 0.00 0.00 71 1014.0
20181120230311 47 270 0.0 0.0 0.00 0.00 0.00 72 1014.0
20181120225348 47 270 0.0 0.0 0.00 0.00 0.00 72 1014.0
20181120223848 46 270 0.0 0.0 0.00 0.00 0.00 74 1014.0
20181120223313 46 270 0.0 0.0 0.00 0.00 0.00 75 1014.0
20181120222349 45 270 0.0 0.0 0.00 0.00 0.00 77 1014.0
20181120220849 45 270 0.0 0.0 0.00 0.00 0.00 79 1014.0
20181120220311 45 270 0.0 0.0 0.00 0.00 0.00 79 1014.0
20181120215349 45 270 0.0 0.0 0.00 0.00 0.00 77 1014.0
20181120213849 45 270 0.0 0.0 0.00 0.00 0.00 74 1014.0
20181120213311 45 270 0.0 0.0 0.00 0.00 0.00 74 1014.0
20181120212349 44 270 0.0 0.0 0.00 0.00 0.00 73 1014.0
20181120210849 44 270 0.0 0.0 0.00 0.00 0.00 73 1014.0
20181120210311 44 270 0.0 0.0 0.00 0.00 0.00 73 1014.0
20181120205349 44 270 0.0 0.0 0.00 0.00 0.00 73 1014.0
20181120203849 44 270 0.0 0.0 0.00 0.00 0.00 73 1014.0
20181120203311 44 270 0.0 0.0 0.00 0.00 0.00 73 1014.0
20181120202349 44 270 0.0 0.0 0.00 0.00 0.00 71 1013.0
20181120200849 44 270 0.0 0.0 0.00 0.00 0.00 71 1013.0
20181120200310 44 270 0.0 0.0 0.00 0.00 0.00 71 1013.0
20181120195349 44 270 0.0 0.0 0.00 0.00 0.00 70 1013.0
20181120193847 45 270 0.0 0.0 0.00 0.00 0.00 70 1013.0
20181120193258 45 270 0.0 0.0 0.00 0.00 0.00 69 1013.0
20181120192346 45 270 0.0 0.0 0.00 0.00 0.00 68 1013.0
20181120190845 45 270 0.0 0.0 0.00 0.00 0.00 68 1013.0
20181120190257 45 270 0.0 0.0 0.00 0.00 0.00 67 1013.0
20181120185346 45 270 0.0 0.0 0.00 0.00 0.00 67 1013.0
20181120183847 46 270 0.0 0.0 0.00 0.00 0.00 65 1013.0
20181120183257 46 315 0.0 0.0 0.00 0.00 0.00 64 1013.0
20181120182347 46 315 0.0 0.0 0.00 0.00 0.00 63 1013.0
20181120180847 47 315 0.0 0.0 0.00 0.00 0.00 61 1013.0
20181120180258 47 315 0.0 0.0 0.00 0.00 0.00 61 1013.0
20181120175346 46 155 0.0 0.0 0.00 0.00 0.00 62 1013.0
20181120173847 46 241 0.0 3.0 0.00 0.00 0.00 64 1013.0
20181120173258 46 135 0.0 0.0 0.00 0.00 0.00 64 1013.0
20181120172346 46 135 0.0 0.0 0.00 0.00 0.00 63 1013.0
20181120170846 46 135 0.0 0.0 0.00 0.00 0.00 62 1013.0
20181120170258 46 135 0.0 0.0 0.00 0.00 0.00 62 1013.0
20181120165346 47 135 0.0 0.0 0.00 0.00 0.00 62 1014.0
20181120163847 47 135 0.0 0.0 0.00 0.00 0.00 61 1014.0
20181120163259 47 135 0.0 0.0 0.00 0.00 0.00 60 1014.0
20181120162347 47 135 0.0 0.0 0.00 0.00 0.00 59 1014.0
20181120160847 47 135 0.0 0.0 0.00 0.00 0.00 59 1014.0
20181120160258 47 135 0.0 0.0 0.00 0.00 0.00 59 1014.0
20181120155346 47 135 0.0 0.0 0.00 0.00 0.00 58 1014.0
20181120153846 47 135 0.0 0.0 0.00 0.00 0.00 57 1014.0
20181120153258 47 135 0.0 0.0 0.00 0.00 0.00 56 1014.0
20181120152347 48 135 0.0 0.0 0.00 0.00 0.00 56 1014.0
20181120150848 48 135 0.0 0.0 0.00 0.00 0.00 54 1014.0
20181120150257 48 135 0.0 0.0 0.00 0.00 0.00 53 1014.0
20181120145346 48 135 0.0 0.0 0.00 0.00 0.00 52 1014.0
20181120143846 48 135 0.0 0.0 0.00 0.00 0.00 50 1014.0
20181120143259 49 135 0.0 2.0 0.00 0.00 0.00 50 1014.0
20181120142346 49 135 0.0 0.0 0.00 0.00 0.00 50 1014.0
20181120140847 49 84 0.0 2.0 0.00 0.00 0.00 49 1014.0
20181120140258 49 45 0.0 0.0 0.00 0.00 0.00 49 1014.0
20181120135347 50 45 0.0 0.0 0.00 0.00 0.00 48 1014.0
20181120133847 50 45 0.0 0.0 0.00 0.00 0.00 47 1014.0
20181120133259 50 45 0.0 0.0 0.00 0.00 0.00 46 1014.0
20181120132347 50 45 0.0 0.0 0.00 0.00 0.00 46 1014.0
20181120130847 50 45 0.0 0.0 0.00 0.00 0.00 44 1014.0
20181120130258 50 45 0.0 0.0 0.00 0.00 0.00 43 1014.0
20181120125347 51 45 0.0 0.0 0.00 0.00 0.00 42 1014.0
20181120123846 51 45 0.0 0.0 0.00 0.00 0.00 41 1014.0
20181120123258 52 45 0.0 0.0 0.00 0.00 0.00 41 1014.0
20181120122348 52 45 0.0 0.0 0.00 0.00 0.00 40 1013.0
20181120120848 52 45 0.0 0.0 0.00 0.00 0.00 39 1013.0
20181120120257 52 45 0.0 0.0 0.00 0.00 0.00 38 1013.0
20181120115347 52 98 0.0 0.0 0.00 0.00 0.00 38 1013.0
20181120113847 53 270 0.0 0.0 0.00 0.00 0.00 37 1013.0
20181120113258 53 270 0.0 0.0 0.00 0.00 0.00 36 1013.0
20181120112347 53 270 0.0 0.0 0.00 0.00 0.00 36 1013.0
20181120110848 53 270 0.0 0.0 0.00 0.00 0.00 36 1013.0
20181120110259 54 270 0.0 0.0 0.00 0.00 0.00 35 1013.0
20181120105348 54 270 0.0 0.0 0.00 0.00 0.00 34 1013.0
20181120103847 54 270 0.0 0.0 0.00 0.00 0.00 32 1013.0
20181120103259 54 270 0.0 0.0 0.00 0.00 0.00 32 1013.0
20181120102348 55 270 0.0 0.0 0.00 0.00 0.00 31 1013.0
20181120100848 55 270 0.0 0.0 0.00 0.00 0.00 29 1013.0
20181120100259 55 270 0.0 0.0 0.00 0.00 0.00 29 1013.0
20181120095346 56 270 0.0 0.0 0.00 0.00 0.00 28 1013.0
20181120093846 56 270 0.0 0.0 0.00 0.00 0.00 28 1013.0
20181120093258 56 272 0.0 2.0 0.00 0.00 0.00 28 1013.0
20181120092347 56 315 1.0 2.0 0.00 0.00 0.00 28 1013.0
20181120090846 55 248 0.0 0.0 0.00 0.00 0.00 29 1012.0
20181120090259 56 248 0.0 0.0 0.00 0.00 0.00 30 1012.0
20181120085347 56 248 0.0 0.0 0.00 0.00 0.00 29 1012.0
20181120083848 56 248 0.0 0.0 0.00 0.00 0.00 29 1012.0
20181120083258 56 248 0.0 0.0 0.00 0.00 0.00 29 1012.0
20181120082347 57 248 0.0 0.0 0.00 0.00 0.00 28 1012.0
20181120080847 57 248 0.0 0.0 0.00 0.00 0.00 27 1011.0
20181120080259 58 248 0.0 0.0 0.00 0.00 0.00 27 1011.0
20181120075348 58 248 0.0 0.0 0.00 0.00 0.00 27 1011.0
20181120073847 59 270 0.0 0.0 0.00 0.00 0.00 27 1011.0
20181120073259 59 270 0.0 0.0 0.00 0.00 0.00 27 1011.0
20181120072347 60 270 0.0 0.0 0.00 0.00 0.00 27 1011.0
20181120070847 62 270 0.0 0.0 0.00 0.00 0.00 27 1011.0
20181120070259 63 270 0.0 0.0 0.00 0.00 0.00 27 1011.0
20181120065347 65 270 0.0 0.0 0.00 0.00 0.00 27 1011.0
20181120063848 70 315 0.0 0.0 0.00 0.00 0.00 28 1011.0
20181120063259 71 315 0.0 0.0 0.00 0.00 0.00 28 1011.0
20181120062348 71 315 0.0 0.0 0.00 0.00 0.00 29 1011.0
20181120060847 70 315 0.0 0.0 0.00 0.00 0.00 29 1010.0
20181120060259 69 270 0.0 0.0 0.00 0.00 0.00 29 1010.0
20181120055348 70 264 0.0 0.0 0.00 0.00 0.00 29 1010.0
20181120053848 67 270 0.0 0.0 0.00 0.00 0.00 29 1010.0
20181120053258 66 299 0.0 0.0 0.00 0.00 0.00 29 1010.0
20181120052347 66 276 0.0 3.0 0.00 0.00 0.00 29 1010.0
20181120050848 66 279 0.0 2.0 0.00 0.00 0.00 29 1010.0
20181120050300 66 292 0.0 2.0 0.00 0.00 0.00 29 1010.0
20181120045347 67 169 0.0 3.0 0.00 0.00 0.00 30 1010.0
20181120043847 70 299 3.0 6.0 0.00 0.00 0.00 31 1010.0
20181120043259 69 270 0.0 0.0 0.00 0.00 0.00 32 1010.0
20181120042347 68 274 0.0 2.0 0.00 0.00 0.00 31 1010.0
20181120040847 65 274 0.0 0.0 0.00 0.00 0.00 31 1010.0
20181120040259 64 292 0.0 0.0 0.00 0.00 0.00 31 1010.0
20181120035347 62 304 2.0 2.0 0.00 0.00 0.00 31 1010.0
20181120033848 63 288 0.0 2.0 0.00 0.00 0.00 31 1010.0
20181120033259 63 292 0.0 5.0 0.00 0.00 0.00 32 1010.0
20181120032348 65 267 0.0 5.0 0.00 0.00 0.00 32 1010.0
20181120030848 63 149 0.0 0.0 0.00 0.00 0.00 33 1010.0
20181120030259 63 270 0.0 0.0 0.00 0.00 0.00 33 1010.0
20181120025348 65 225 0.0 0.0 0.00 0.00 0.00 33 1010.0
20181120023848 66 270 0.0 0.0 0.00 0.00 0.00 33 1011.0
20181120023300 65 270 0.0 2.0 0.00 0.00 0.00 33 1011.0
20181120022348 66 315 0.0 0.0 0.00 0.00 0.00 33 1010.0
20181120020848 65 315 0.0 0.0 0.00 0.00 0.00 34 1010.0
20181120020300 63 315 0.0 0.0 0.00 0.00 0.00 34 1010.0
20181120015348 61 270 0.0 0.0 0.00 0.00 0.00 34 1010.0
20181120013847 63 292 2.0 3.0 0.00 0.00 0.00 35 1010.0
20181120013300 65 270 0.0 0.0 0.00 0.00 0.00 35 1010.0
20181120012348 64 225 0.0 0.0 0.00 0.00 0.00 36 1010.0
20181120010847 62 314 2.0 5.0 0.00 0.00 0.00 37 1010.0
20181120010259 61 270 0.0 0.0 0.00 0.00 0.00 39 1010.0
20181120005348 60 135 0.0 2.0 0.00 0.00 0.00 41 1010.0